FloripaSat 1
1 44885U 19093G   25190.79482894  .00003989  00000-0  33596-3 0  9997
2 44885  97.8179 278.4600 0012846 103.8231 256.4422 14.98733600301277
RS-44
1 44909U 19096E   25190.57522310  .00000041  00000-0  12576-3 0  9992
2 44909  82.5195 207.3492 0216573 225.2352 133.0952 12.79741790258522
UPMSat 2
1 46276U 20061E   25190.75809546  .00057835  00000-0  43150-3 0  9999
2 46276  97.2429 266.2368 0002093 148.6178 211.5211 15.72578973270200
SALSAT
1 46495U 20068K   25190.51188052  .00004361  00000-0  18797-3 0  9990
2 46495  97.8611 169.9322 0012846  63.4870 296.7681 15.23075729263082
CubeSX-Sirius-HSE
1 47951U 21022V   25157.62701764  .07883385  25648-5  89537-3 0  9993
2 47951  97.4004  72.1904 0010275 223.9924 136.0557 16.36879307233400
CubeSX-HSE
1 47952U 21022W   25157.69972699  .06655353  25454-5  93288-3 0  9992
2 47952  97.3980  72.5414 0010307 219.3637 140.6911 16.34906352233436
GRBAlpha
1 47959U 21022AD  25160.45426279  .07940347  25506-5  90589-3 0  9995
2 47959  97.3899  75.6235 0011032 227.2558 132.7812 16.36806138232695
TUBIN
1 48900U 21059X   25190.77497743  .00031841  00000-0  35479-3 0  9991
2 48900  97.6751   2.5114 0004190 123.8228 236.3429 15.62772808224756
LEDSAT
1 49069U 21073D   25190.78852573  .00050511  00000-0  52398-3 0  9995
2 49069  97.3884 273.6709 0006938 317.3286  42.7434 15.64490392216151
CUTE
1 49263U 21088D   25190.49212869  .00010453  00000-0  20226-3 0  9999
2 49263  97.4509 267.6337 0009419 129.2699 230.9388 15.47892276209055
TeikyoSat 4
1 49396U 21102B   25190.61597224  .00001014  00000-0  70202-4 0  9991
2 49396  97.4087 227.9591 0013440  37.1949 323.0207 15.07744056201074
Z-Sat
1 49399U 21102E   25190.87852703  .00002580  00000-0  14268-3 0  9996
2 49399  97.3782 231.4968 0017902   4.8646 355.2757 15.14618865201565
KOSEN 1
1 49402U 21102H   25190.87821055  .00003970  00000-0  18368-3 0  9996
2 49402  97.3687 235.1426 0014791 338.8991  21.1633 15.20619183201899
HO-113
1 50466U 21131B   25190.83038914  .00000307  00000-0  10964-3 0  9995
2 50466  98.5109 280.0360 0005070  57.3125 302.8552 14.40842568185808
Foresail-1
1 52766U 22057AL  25176.64799660  .13857605  27391-5  25307-3 0  9992
2 52766  97.5832 331.2310 0012137 233.7199 258.4922 16.46795272172486
SNUGLITE 2
1 52899U 22065F   25190.44146018  .00000705  00000-0  14593-3 0  9990
2 52899  98.1723 332.1305 0008081  29.1922 330.9730 14.63268391160852
UmKA 1 (RS40S)
1 57172U 23091G   25190.84715274  .00003481  00000-0  18642-3 0  9992
2 57172  97.5565 246.0738 0013257 224.7563 135.2600 15.15619108112062
CubeBel-2 (EU11S)
1 57175U 23091K   25190.86186238  .00005279  00000-0  24966-3 0  9992
2 57175  97.5565 247.4225 0010914 230.8461 129.1804 15.19769758112152
VERONIKA
1 58261U 23174F   25190.45010459  .00173911  00000-0  93150-3 0  9997
2 58261  97.4090 278.6166 0005940 247.9962 112.0675 15.79808405 93388
ENSO
1 58470U 23185J   25190.83711361  .00040533  00000-0  52498-3 0  9996
2 58470  97.3726 266.9889 0004671 327.2549  32.8417 15.58776712 89740
EIRSAT-1
1 58472U 23185L   25190.39999442  .00113348  00000-0  79508-3 0  9993
2 58472  97.3666 269.0249 0003170 289.6502  70.4420 15.73849965 89843
SONATE-2
1 59112U 24043Q   25190.32826114  .00010987  00000-0  30958-3 0  9998
2 59112  97.5169 322.1247 0010781  15.2405 344.9162 15.36558569 74904
MO-122
1 60209U 24125G   25190.53086698  .00011592  00000-0  32062-3 0  9997
2 60209  97.2764  41.8275 0019058  35.1160 325.1337 15.36986045 56552
GRBBeta
1 60237U 24128C   25190.61249089  .00002496  00000-0  19535-3 0  9998
2 60237  61.9925 334.8257 0054043  64.0786 296.5861 15.02848711 54712
Curium One
1 60242U 24128H   25190.59799498  .00004482  00000-0  31517-3 0  9996
2 60242  61.9826 332.7176 0053904  60.3066 300.3377 15.05479879 54758
ROBUSTA-3A
1 60243U 24128J   25190.61006862  .00004253  00000-0  30403-3 0  9995
2 60243  61.9897 333.6049 0052900  58.0247 302.5972 15.05004765 54748
CatSat
1 60246U 24125J   25190.56790884  .00005868  00000-0  19420-3 0  9992
2 60246  97.2563  40.7322 0041491 349.7311  10.3078 15.30864914 54578
HYPERVIEW-1G (RS66S)
1 61772U 24199AP  25190.90399374  .00013497  00000-0  37966-3 0  9997
2 61772  97.3497  59.7142 0015230  86.2007 274.0978 15.36492398 81619
AO-123
1 61781U 24199AY  25190.89012317  .00004280  00000-0  15547-3 0  9995
2 61781  97.3513  58.2523 0017538  90.8408 269.4841 15.28685644 81519
ZIMSAT 2
1 61783U 24199BA  25190.84641529  .00025210  00000-0  58046-3 0  9992
2 61783  97.3469  60.5156 0014803  84.1369 276.1565 15.42491772 84810
HADES-R (SO-124)
1 62690U 25009CK  25190.17114927  .00024285  00000-0  81544-3 0  9994
2 62690  97.4090 270.8948 0001663  11.4046 348.7233 15.30851307 26678
HYDRA-T
1 62692U 25009CM  25190.21664514  .00024716  00000-0  82209-3 0  9991
2 62692  97.4092 270.9866 0001252  14.2962 345.8315 15.31153605 26681
JINJUSat 1B
1 63210U 25052A   25190.46496547  .00006829  00000-0  30947-3 0  9999
2 63210  97.4391  84.2158 0003485 190.4499 169.6665 15.21167553 17790
NUSHSAT 1
1 63211U 25052B   25190.58639668  .00007805  00000-0  35027-3 0  9995
2 63211  97.4379  84.3444 0003334 195.5298 164.5836 15.21454833 17819
TEVEL2-4
1 63213U 25052D   25190.60607242  .00006791  00000-0  30807-3 0  9997
2 63213  97.4296  84.1938 0001976 208.6704 151.4423 15.21135045 17811
TEVEL2-5
1 63214U 25052E   25190.60706818  .00006771  00000-0  30739-3 0  9999
2 63214  97.4296  84.1927 0001926 209.6174 150.4953 15.21112110 17812
TEVEL2-6
1 63215U 25052F   25190.61000028  .00006627  00000-0  30129-3 0  9994
2 63215  97.4297  84.1907 0001974 211.3993 148.7125 15.21071461 17818
TEVEL2-1
1 63217U 25052H   25190.62541801  .00006535  00000-0  29907-3 0  9996
2 63217  97.4274  84.1328 0001766 237.6186 122.4879 15.20847757 17819
TEVEL2-2
1 63218U 25052J   25190.62569831  .00006650  00000-0  30425-3 0  9995
2 63218  97.4274  84.1337 0001771 239.2343 120.8718 15.20850115 17815
TEVEL2-3
1 63219U 25052K   25190.62593596  .00006690  00000-0  30615-3 0  9996
2 63219  97.4275  84.1330 0001754 239.3813 120.7250 15.20843612 17818
TEVEL2-8
1 63237U 25052AD  25190.51776721  .00007013  00000-0  33223-3 0  9995
2 63237  97.4337  83.9164 0006097 269.7033  90.3503 15.19618026 17781
TEVEL2-9
1 63238U 25052AE  25190.45549117  .00007068  00000-0  33545-3 0  9993
2 63238  97.4339  83.8496 0006192 270.9860  89.0666 15.19550613 17770
TEVEL2-7
1 63239U 25052AF  25190.26055070  .00007260  00000-0  34481-3 0  9997
2 63239  97.4341  83.6502 0006216 272.1354  87.9169 15.19515374 17746
HYDRA-W
1 63490U 25052BL  25190.88226649  .00016172  00000-0  65902-3 0  9990
2 63490  97.4284  84.7262 0009165 262.9487  97.0709 15.24508281 17877
HADES-ICM (SO-125)
1 63492U 25052BN  25190.64378840  .00015068  00000-0  62369-3 0  9994
2 63492  97.4295  84.4425 0009530 269.3565  90.6580 15.23994570 17834
